www.pogodaiklimat.ru

Погода и климат >> Архив погоды >> Россия >> Кировская область >> Даровское


ПОГОДА в Даровском

  • Прогноз погоды в Даровском
  • Монитор погоды в Даровском
  • Климат города

АРХИВ ПОГОДЫ в Даровском

Время (UTC), дата Ветер
(напр.,м/с)
 
Видим.   Явления Облачность Т
(С)
Тd
(С)
f
(%)
Тe
(С)
Тes
(С)
Комфортность P
(гПа)
Po
(гПа)
Тmin
(С)
Tmax
(С)
R
(мм)
R24
(мм)
S
(см)
03 18.06 штиль 0
{1}
20 км 9/0
[Cs]
+14.9 +6.7 58 +15 +18 1015.2 997.7 +5.3
06 18.06 СЗ 3-6
{6}
20 км 8/0
[Cs]
+23.0 +3.8 29 +23 +30 комфорт 1014.0 997.0
09 18.06 С 4-7
{8}
20 км 8/5 1000 м
[Cu hum Ci fib]
+25.8 +5.3 27 +25 +30 комфорт 1012.8 995.9
12 18.06 СЗ 3-7
{9}
20 км 8/8 1000 м
[Cu med, cong]
+27.0 +5.3 25 +26 +28 жарко 1011.5 994.8
15 18.06 СЗ 2-6
{7}
20 км 9/5 1000 м
[Cu Sc Ac trans Cs]
+25.6 +7.6 32 +26 +26 жарко 1010.6 993.7 +28.1
18 18.06 ЮВ 1-1
{7}
н/о н/о +18.2 +11.2 64 +20 +20 1010.8 993.6
21 18.06 штиль 0
{1}
н/о н/о +12.3 +10.5 89 +12 +12 1011.3 993.7
00 19.06 штиль 0
{1}
н/о н/о +10.1 +9.0 93 +9 +9 1011.2 993.4
03 19.06 штиль 0
{1}
20 км 8/4 600 м
[Sc Ac trans Ci fib]
+12.8 +10.9 88 +12 +14 1010.9 993.3 +9.7
06 19.06 СЗ 1-2
{3}
20 км 3/1 600 м
[Sc Ci fib]
+24.0 +12.5 49 +26 +37 жарко 1009.1 992.3
09 19.06 З 2-4
{6}
20 км 8/6 600 м
[Cb calv As op]
+26.4 +5.8 27 +26 +29 жарко 1007.9 991.2
12 19.06 СЗ 1-4
{8}
20 км {ливн. осадки} 9/5 600 м
[Cb calv Ac As Cs]
+27.4 +9.9 33 +28 +31 жарко 1006.4 989.7
15 19.06 С 2-5
{9}
20 км в посл. час ливневой дождь 10/5 600 м
[Cb calv As op]
+21.0 +12.1 57 +24 +24 комфорт 1005.8 988.8 +27.9 0.8
18 19.06 Ю 1-2
{5}
н/о н/о +17.0 +13.2 78 +18 +18 1004.6 987.4
21 19.06 Ю 1-2
{3}
н/о н/о +15.1 +13.2 88 +16 +16 1003.0 985.8
00 20.06 Ю 1-2
{3}
н/о н/о +13.0 +12.1 94 +13 +13 1000.8 983.4
03 20.06 Ю 2-3
{5}
20 км в посл. час ливневой дождь 10/6 600 м
[Cb calv Ac As]
+15.7 +13.9 89 +16 +16 998.3 981.2 +12.6 0.3
06 20.06 Ю 1-2
{10}
20 км в посл. час ливневой дождь 10/8 600 м
[Cb calv Ac As]
+16.0 +14.6 91 +17 +17 995.0 977.9
09 20.06 З 3-8
{14}
20 км в посл. час ливневой дождь 10/9 600 м
[Cb calv As op]
+13.4 +10.7 84 +12 +12 995.6 978.3
12 20.06 З 3-7
{10}
20 км в посл. час ливневой дождь 8/6 600 м
[Cb calv Ac cast Ci fib]
+15.5 +11.0 75 +15 +17 995.5 978.3
15 20.06 З 4-8
{13}
20 км {ливн. осадки} 8/6 600 м
[Cb calv Ac trans Ci fib]
+14.7 +6.7 59 +14 +14 997.0 979.8 +17.0 8
18 20.06 ЮЗ 2-6
{11}
н/о н/о +11.9 +7.1 72 +11 +11 997.0 979.6
21 20.06 ЮЗ 2-6
{8}
н/о н/о +10.0 +7.4 84 +8 +8 996.8 979.3
00 21.06 З 3-9
{9}
н/о н/о +10.7 +6.4 75 +9 +9 995.5 978.1
03 21.06 З 3-7
{10}
20 км 10/10 600 м
[Cb calv]
+11.0 +7.0 76 +9 +9 995.3 977.9 +9.4 0.3
06 21.06 ЮЗ 3-7
{8}
20 км слабый ливневой дождь 10/10 300 м
[Cb calv]
+10.4 +8.8 90 +8 +8 995.6 978.2
09 21.06 З 4-9
{10}
20 км слабый ливневой дождь 10/10 300 м
[Cb calv]
+10.4 +9.5 94 +8 +8 996.5 979.1
12 21.06 З 3-6
{9}
20 км слабый дождь {ливн. осадки} 10/10 300 м
[Frnb Ns]
+12.4 +10.5 88 +11 +11 998.3 981.0
15 21.06 З 3-5
{8}
20 км {дождь} 10/10 300 м
[Frnb Ns]
+14.0 +9.8 76 +13 +13 1000.3 983.0 +14.2 8
18 21.06 З 3-7
{9}
н/о н/о +14.7 +8.2 65 +14 +14 1002.4 985.1
21 21.06 СЗ 3-5
{8}
н/о н/о +14.3 +7.9 65 +13 +13 1004.2 986.9
00 22.06 З 2-4
{7}
н/о н/о +11.9 +7.9 76 +11 +11 1006.4 988.8
03 22.06 З 3-6
{6}
20 км 6/0
[Ci fib]
+14.7 +8.1 65 +14 +16 1007.5 990.1 +11.4
06 22.06 СЗ 4-8
{9}
20 км 6/0
[Ci fib]
+18.8 +7.1 46 +19 +25 1008.3 991.2
09 22.06 З 5-9
{11}
20 км 8/3 1000 м
[Cu hum Cs]
+21.2 +6.4 38 +22 +27 комфорт 1009.0 992.0
12 22.06 З 3-6
{9}
20 км 10/0
[Cs]
+23.1 +5.1 31 +23 +30 комфорт 1008.9 992.0
15 22.06 З 2-5
{7}
20 км 10/0
[Cs]
+23.7 +5.3 30 +24 +25 комфорт 1008.8 991.9 +24.1
18 22.06 Ю 1-1
{5}
н/о н/о +16.3 +9.6 65 +17 +17 1010.0 992.6
21 22.06 штиль 0
{1}
н/о н/о +11.1 +9.1 87 +10 +10 1010.5 992.8
00 23.06 штиль 0
{1}
н/о н/о +8.8 +7.9 94 +8 +8 1011.5 993.7
03 23.06 штиль 0
{1}
20 км 8/0
[Cs]
+17.4 +11.3 67 +17 +21 1011.7 994.4 +8.7
06 23.06 Ю 1-3
{3}
20 км 8/8 600 м
[Sc]
+24.6 +15.1 55 +27 +30 жарко 1011.2 994.3
09 23.06 З 2-5
{7}
20 км 8/8 600 м
[Cb calv]
+27.2 +14.6 46 +30 +33 душно 1011.0 994.4
12 23.06 ЮЗ 1-2
{6}
20 км 10/5 600 м
[Cb calv Cs]
+27.8 +14.8 45 +30 +35 жарко 1010.7 994.1
15 23.06 штиль 0
{5}
20 км 10/8 600 м
[Cb calv Cs]
+28.0 +14.9 45 +31 +31 душно 1010.5 993.9 +29.4
18 23.06 штиль 0
{2}
н/о н/о +21.6 +16.8 74 +26 +26 душно 1011.3 994.3
21 23.06 штиль 0
{1}
н/о н/о +17.7 +16.2 91 +18 +18 1012.3 995.0
00 24.06 штиль 0
{1}
н/о н/о +15.4 +14.6 95 +15 +15 1013.7 996.3
03 24.06 штиль 0
{1}
20 км 10/0
[Ac cast Cs]
+20.9 +16.4 75 +24 +27 комфорт 1013.7 996.6 +15.2
06 24.06 ЮВ 1-2
{3}
20 км 10/0
[Cs]
+27.7 +17.0 52 +32 +42 очень
душно
1013.3 996.7
09 24.06 ЮЗ 1-3
{3}
20 км 9/8 1000 м
[Cu Sc Cs]
+30.3 +15.7 41 +33 +36 душно 1013.2 996.7
12 24.06 С 1-2
{4}
20 км 10/8 600 м
[Cb calv Cs]
+29.6 +15.9 44 +33 +34 душно 1013.3 996.8
15 24.06 ЮЗ 1-2
{3}
20 км 10/4 1000 м
[Cu med, cong Ac cuf Cs]
+31.1 +14.6 37 +33 +34 душно 1013.1 996.7 +32.0
18 24.06 ЮВ 1-1
{3}
н/о н/о +22.7 +18.2 76 +28 +28 душно 1014.3 997.3
21 24.06 штиль 0
{1}
н/о н/о +18.6 +17.4 93 +20 +20 1015.1 997.8

 

Местоположение метеостанции Даровское (Кировская область, Россия): широта 58.77 долгота 47.97 высота над уровнем моря 147 м.

В архиве по умолчанию представлена погода в Даровском за последнюю неделю. Архивные данные за месяц целиком и за предыдущие месяцы, начиная с января 2011 года, Вы можете получить, выбрав интересующий диапазон дат из раскрывающегося списка и нажав кнопку "Ввод!".


*Определитесь, кто Вы:
робот инопланетянин человек

Внимание! Время в таблицах - всемирное. Для получения местного времени необходимо прибавить поправку, которая в Даровском равна 3 ч.

Смотрите также архив погоды в соседних городах и на ближайших метеорологических станциях:

Погода в Котельниче (Кировская область, Россия) (57 км)
Погода в Вохме (Костромская область, Россия) (71 км)
Погода в Шабалино (Кировская область, Россия) (72 км)
Погода в Кирове (Кировская область, Россия) (98 км)
Погода в Опарино (Кировская область, Россия) (121 км)
Погода в Пыщуге (Костромская область, Россия) (131 км)
Погода в Кумене (Кировская область, Россия) (136 км)
Погода в Шахунье (Нижегородская область, Россия) (146 км)
Погода в Шарье (Костромская область, Россия) (148 км)
Погода в Яранске (Кировская область, Россия) (156 км)

Пояснения к столбцам:

Ветер - указаны скорость ветра в м/с - средняя за 10 мин, порывы в срок и между сроками (в фигурных скобках) и направление, откуда дует ветер: С - северный, СВ - северо-восточный, В - восточный, ЮВ - юго-восточный, Ю - южный, ЮЗ - юго-западный, З - западный, СЗ - северо-западный.
Видимость - горизонтальная дальность видимости в метрах или километрах. При видимости от 1 до 10 км при отсутствии осадков обычно наблюдается дымка, при ухудшении видимости до 1 км и менее - туман. В сухую погоду видимость может ухудшаться дымом, пылью или мглою.
Явления - указаны атмосферные явления, наблюдавшиеся в срок или в последний час перед сроком; фигурными скобками обозначены явления, наблюдавшиеся между сроками (за 1-3 часа до срока); квадратными скобками обозначены град или гололедные отложения с указанием их диаметра в мм.
Облачность - указаны через наклонную черту общая и нижняя облачность в баллах и высота нижней границы облаков в метрах; квадратными скобками обозначены формы облаков: Ci - перистые, Cs - перисто-слоистые, Cc - перисто-кучевые, Ac - высококучевые, As - высокослоистые, Sc - слоисто-кучевые, Ns - слоисто-дождевые, Cu - кучевые, Cb - кучево-дождевые. Подробнее классификацию облаков см. в Атласе облаков (PDF).
T - Температура воздуха - температура, измеренная на высоте 2 м над землей.
Td - Температура точки росы - температура, при понижении до которой содержащийся в воздухе водяной пар достигнет насыщения.
f - Относительная влажность воздуха - влажноcть воздуха, измеренная на высоте 2 м над землей.
Te - Эффективная температура - температура, которую ощущает одетый по сезону человек в тени. Характеристика душности погоды. При расчете учитывается влияние влажности воздуха и скорости ветра на теплоощущения человека.
Tes - Эффективная температура на солнце - температура, которую ощущает человек, с поправкой на солнечный нагрев. Характеристика знойности погоды. Зависит от высоты солнца над горизонтом, облачности и скорости ветра. Ночью, в пасмурную погоду, а также при ветре 12 м/с и более поправка равна нулю.
P - Атмосферное давление - приведенное к уровню моря атмосферное давление.
Po - Атмосферное давление - измеренное на уровне метеостанции атмосферное давление.
Tmin - Минимальная температура - минимум температуры воздуха на высоте 2 м над землей.
Tmax - Максимальная температура - максимум температуры воздуха на высоте 2 м над землей.
R - Количество осадков - Количество выпавших осадков за период времени, мм. При наведении курсора мыши на число - период времени, за который выпало указанное количество осадков.
R24 - Количество осадков - Количество выпавших осадков за 24 часа, мм.
S - Снежный покров - Высота снежного покрова, см. При наведении курсора мыши на число - состояние снежного покрова и степень покрытия местности в баллах.